Oxford, CT

1:14 PM EDT on May 21, 2018 (GMT -0400)
Waterbury-Oxford

Weather History for KOXC - January, 2014

Change the Weather History Date:

Friday, January 17, 2014

  Actual Average Record
Temperature  
Mean Temperature 32 °F -  
Max Temperature 39 °F 28 °F 46 °F (1999)
Min Temperature 24 °F 15 °F -2 °F (2000)
Degree Days  
Heating Degree Days 34    
Moisture  
Dew Point 24 °F    
Average Humidity 77    
Maximum Humidity 86    
Minimum Humidity 52    
Precipitation  
Precipitation 0.00 in - - ()
Sea Level Pressure  
Sea Level Pressure 29.93 in    
Wind  
Wind Speed 2 mph (SW)    
Max Wind Speed 12 mph    
Max Gust Speed -    
Visibility 7 miles    
Events      
Averages and records for this station are not official NWS values.
T = Trace of Precipitation, MM = Missing Value Source: NWS Daily Summary

Daily Weather History Graph

Daily Weather History Graph

Search for Another Location

Airport or City:

Astronomy

Jan. 17, 2014 Rise Set
Actual Time 7:15 AM EST 4:50 PM EST
Civil Twilight 6:45 AM EST 5:20 PM EST
Nautical Twilight 6:11 AM EST 5:54 PM EST
Astronomical Twilight 5:38 AM EST 6:27 PM EST
Moon 6:35 PM EST (1/17) 7:40 AM EST (1/17)
Length of Visible Light 10h 35m
Length of Day
9h 34m
Full, 98% of the Moon is Illuminated
Jan 17
Full
Jan 24
Last Quarter
Jan 30
New
Feb 6
First Quarter
Feb 14
Full

Hourly Weather History & Observations

Time (EST) Temp. Windchill Dew Point Humidity Pressure Visibility Wind Dir Wind Speed Gust Speed Precip Events Conditions
12:15 AM 30.2 °F 26.7 °F 26.6 °F 86% 29.92 in 8.0 mi NW 3.5 mph - N/A   Scattered Clouds
12:35 AM 30.2 °F 25.4 °F 24.8 °F 80% 29.91 in 7.0 mi NW 4.6 mph - N/A   Clear
12:55 AM 30.2 °F - 24.8 °F 80% 29.91 in 5.0 mi Calm Calm - N/A   Clear
1:15 AM 28.4 °F - 24.8 °F 86% 29.91 in 4.0 mi Calm Calm - N/A   Clear
1:35 AM 28.4 °F - 23.0 °F 80% 29.91 in 3.0 mi Calm Calm - N/A   Clear
1:55 AM 28.4 °F - 23.0 °F 80% 29.91 in 3.0 mi Calm Calm - N/A   Clear
2:15 AM 26.6 °F - 23.0 °F 86% 29.92 in 2.5 mi Calm Calm - N/A   Clear
2:35 AM 26.6 °F - 21.2 °F 80% 29.92 in 0.8 mi Calm Calm - N/A   Unknown
2:55 AM 26.6 °F - 21.2 °F 80% 29.92 in 4.0 mi Calm Calm - N/A   Clear
3:15 AM 26.6 °F - 21.2 °F 80% 29.92 in 4.0 mi Calm Calm - N/A   Clear
3:35 AM 26.6 °F - 19.4 °F 74% 29.92 in 3.0 mi Calm Calm - N/A   Clear
3:55 AM 26.6 °F - 19.4 °F 74% 29.93 in 4.0 mi Calm Calm - N/A   Clear
4:15 AM 26.6 °F - 21.2 °F 80% 29.93 in 2.0 mi Calm Calm - N/A   Mostly Cloudy
4:35 AM 24.8 °F - 19.4 °F 80% 29.92 in 0.2 mi Calm Calm - N/A   Overcast
4:55 AM 24.8 °F - 19.4 °F 80% 29.92 in 0.2 mi Calm Calm - N/A   Overcast
5:15 AM 24.8 °F - 17.6 °F 74% 29.93 in 2.0 mi Calm Calm - N/A   Mostly Cloudy
5:35 AM 24.8 °F - 19.4 °F 80% 29.94 in 0.8 mi Calm Calm - N/A   Unknown
5:45 AM 24.8 °F - 19.4 °F 80% 29.94 in 10.0 mi Calm Calm - N/A   Clear
6:50 AM 24.8 °F - 19.4 °F 80% 29.95 in 10.0 mi Calm Calm - N/A   Clear
8:45 AM 26.6 °F - 21.2 °F 80% 29.97 in 10.0 mi Calm Calm - N/A   Clear
9:45 AM 32.0 °F - 26.6 °F 80% 29.99 in 10.0 mi Calm Calm - N/A   Clear
11:52 AM 37.4 °F 32.1 °F 23.0 °F 56% 29.95 in 10.0 mi SW 6.9 mph - N/A   Partly Cloudy
12:52 PM 39.2 °F 33.0 °F 23.0 °F 52% 29.94 in 10.0 mi West 9.2 mph - N/A   Partly Cloudy
2:52 PM 39.2 °F 32.0 °F 24.8 °F 56% 29.93 in 10.0 mi South 11.5 mph - N/A   Partly Cloudy
4:50 PM 37.4 °F 33.8 °F 26.6 °F 65% 29.93 in 10.0 mi South 4.6 mph - N/A   Clear
5:55 PM 35.6 °F 31.7 °F 26.6 °F 70% 29.93 in 10.0 mi South 4.6 mph - N/A   Clear
6:54 PM 33.8 °F 29.6 °F 26.6 °F 75% 29.94 in 10.0 mi South 4.6 mph - N/A   Clear
7:45 PM 33.8 °F 29.6 °F 26.6 °F 75% 29.93 in 10.0 mi SSW 4.6 mph - N/A   Clear
9:15 PM 33.8 °F 30.8 °F 26.6 °F 75% 29.93 in 10.0 mi South 3.5 mph - N/A   Clear
9:35 PM 33.8 °F - 28.4 °F 81% 29.93 in 10.0 mi Calm Calm - N/A   Clear
9:55 PM 33.8 °F 30.8 °F 28.4 °F 81% 29.93 in 10.0 mi South 3.5 mph - N/A   Clear
10:15 PM 33.8 °F - 28.4 °F 81% 29.92 in 10.0 mi Calm Calm - N/A   Clear
10:35 PM 33.8 °F - 28.4 °F 81% 29.93 in 10.0 mi Calm Calm - N/A   Clear
10:55 PM 33.8 °F - 28.4 °F 81% 29.92 in 10.0 mi Calm Calm - N/A   Partly Cloudy
11:15 PM 33.8 °F - 28.4 °F 81% 29.92 in 9.0 mi Calm Calm - N/A   Partly Cloudy
11:35 PM 32.0 °F 28.7 °F 26.6 °F 80% 29.91 in 8.0 mi NNW 3.5 mph - N/A   Mostly Cloudy
11:55 PM 30.2 °F 26.7 °F 26.6 °F 86% 29.90 in 8.0 mi North 3.5 mph - N/A   Overcast